Weather History for Gainesville, FL

Change the Weather History Date:

Wednesday, July 3, 2013

  Actual Average Record
Temperature  
Mean Temperature 82 °F 81 °F  
Max Temperature 91 °F 91 °F 101 °F (1902)
Min Temperature 73 °F 71 °F 63 °F (1962)
Degree Days  
Heating Degree Days 0 0  
Month to date heating degree days 0 0  
Since 1 June heating degree days 0 0  
Since 1 July heating degree days 0 0  
Cooling Degree Days 17 16  
Month to date cooling degree days 46 48  
Year to date cooling degree days 1066 997  
Since 1 June cooling degree days 534 487  
Growing Degree Days 32 (Base 50)    
Moisture  
Dew Point 72 °F    
Average Humidity 75    
Maximum Humidity 93    
Minimum Humidity 56    
Precipitation  
Precipitation 0.21 in 0.21 in 5.71 in (1909)
Month to date precipitation 2.43 0.64  
Year to date precipitation 19.68 23.75  
Snow  
Snow 0.00 in 0.00 in 0.00 in ()
Month to date snowfall 0.0 0.0  
Since 1 June snowfall 0.0 0.0  
Since 1 July snowfall 0.0 0.0  
Snow Depth 0.00 in    
Sea Level Pressure  
Sea Level Pressure 30.10 in    
Wind  
Wind Speed 7 mph (SE)    
Max Wind Speed 23 mph    
Max Gust Speed 31 mph    
Visibility 9 miles    
Events Rain    
T = Trace of Precipitation, MM = Missing Value Source: NWS Daily Summary

Daily Weather History Graph

Daily Weather History Graph

Search for Another Location

Airport:

Trip Planner

Search our weather history database for the weather conditions in past years. The results will help you decide how hot, cold, wet, or windy it might be!

Date:

Astronomy

Jul. 03, 2013 Rise Set
Actual Time 6:33 AM EDT 8:33 PM EDT
Civil Twilight 6:06 AM EDT 9:00 PM EDT
Nautical Twilight 5:33 AM EDT 9:33 PM EDT
Astronomical Twilight 4:57 AM EDT 10:08 PM EDT
Moon 3:01 AM EDT (7/3) 4:49 PM EDT (7/3)
Length of Visible Light 14h 54m
Length of Day
14h 00m
Waning Crescent, 18% of the Moon is Illuminated
Jul 3
Waning Crescent
Jul 8
New
Jul 15
First Quarter
Jul 22
Full
Jul 29
Last Quarter

Hourly Weather History & Observations

Time (EDT) Temp. Heat Index Dew Point Humidity Pressure Visibility Wind Dir Wind Speed Gust Speed Precip Events Conditions
12:01 AM 75.2 °F - 73.4 °F 94% 30.11 in 10.0 mi Calm Calm - N/A   Scattered Clouds
12:53 AM 73.9 °F - 72.0 °F 93% 30.09 in 10.0 mi East 4.6 mph - N/A   Clear
1:16 AM 73.4 °F - 71.6 °F 94% 30.10 in 10.0 mi East 5.8 mph - N/A   Partly Cloudy
1:53 AM 73.9 °F - 72.0 °F 93% 30.09 in 10.0 mi East 5.8 mph - N/A   Scattered Clouds
2:26 AM 73.4 °F - 71.6 °F 94% 30.09 in 10.0 mi ESE 5.8 mph - N/A   Mostly Cloudy
2:53 AM 73.9 °F - 72.0 °F 93% 30.08 in 10.0 mi SE 5.8 mph - N/A   Overcast
3:25 AM 73.4 °F - 71.6 °F 94% 30.09 in 10.0 mi SE 5.8 mph - N/A   Overcast
3:53 AM 73.9 °F - 72.0 °F 93% 30.08 in 10.0 mi SE 4.6 mph - N/A   Clear
4:53 AM 73.9 °F - 72.0 °F 93% 30.07 in 10.0 mi ESE 5.8 mph - N/A   Clear
5:53 AM 73.0 °F - 71.1 °F 93% 30.08 in 9.0 mi Calm Calm - N/A   Clear
6:53 AM 73.0 °F - 71.1 °F 93% 30.09 in 9.0 mi East 3.5 mph - N/A   Clear
7:53 AM 73.9 °F - 72.0 °F 93% 30.11 in 10.0 mi East 4.6 mph - N/A   Clear
8:01 AM 75.2 °F - 73.4 °F 94% 30.12 in 10.0 mi East 4.6 mph - N/A   Partly Cloudy
8:53 AM 77.0 °F - 73.9 °F 90% 30.13 in 10.0 mi SE 8.1 mph - N/A   Mostly Cloudy
9:22 AM 78.8 °F - 73.4 °F 83% 30.13 in 10.0 mi SSE 9.2 mph - N/A   Scattered Clouds
9:53 AM 81.0 °F 86.2 °F 73.9 °F 79% 30.12 in 10.0 mi SE 10.4 mph - N/A   Partly Cloudy
10:53 AM 84.0 °F 90.2 °F 73.0 °F 69% 30.13 in 10.0 mi SSE 13.8 mph 18.4 mph N/A   Partly Cloudy
11:53 AM 86.0 °F 92.2 °F 72.0 °F 63% 30.12 in 10.0 mi SE 11.5 mph 19.6 mph N/A   Partly Cloudy
12:39 PM 86.0 °F 93.4 °F 73.4 °F 66% 30.12 in 10.0 mi SE 8.1 mph - N/A   Mostly Cloudy
12:49 PM 87.8 °F 93.8 °F 71.6 °F 58% 30.12 in 10.0 mi SE 6.9 mph - N/A   Scattered Clouds
12:53 PM 87.1 °F 93.6 °F 72.0 °F 61% 30.11 in 10.0 mi SE 9.2 mph - N/A   Mostly Cloudy
1:53 PM 90.0 °F 96.4 °F 71.1 °F 54% 30.09 in 10.0 mi SE 12.7 mph 17.3 mph N/A   Partly Cloudy
2:53 PM 84.9 °F 89.4 °F 70.0 °F 61% 30.07 in 10.0 mi SE 17.3 mph 25.3 mph N/A   Mostly Cloudy
3:53 PM 84.0 °F 91.2 °F 73.9 °F 72% 30.08 in 10.0 mi ESE 18.4 mph 24.2 mph 0.00 in   Scattered Clouds
4:08 PM 80.6 °F 85.4 °F 73.4 °F 79% 30.08 in 1.0 mi ESE 12.7 mph 31.1 mph 0.00 in Rain Light Rain
4:24 PM 78.8 °F - 73.4 °F 83% 30.08 in 4.0 mi SSE 10.4 mph - 0.13 in Rain Rain
4:53 PM 77.0 °F - 73.0 °F 88% 30.09 in 10.0 mi SE 4.6 mph - 0.14 in Rain Light Rain
5:53 PM 77.0 °F - 73.0 °F 88% 30.08 in 10.0 mi SE 4.6 mph - 0.01 in Rain Light Rain
6:53 PM 77.0 °F - 73.9 °F 90% 30.09 in 10.0 mi Calm Calm - 0.00 in   Clear
7:53 PM 77.0 °F - 73.9 °F 90% 30.10 in 10.0 mi Calm Calm - N/A   Scattered Clouds
8:24 PM 77.0 °F - 73.4 °F 89% 30.12 in 6.0 mi South 6.9 mph - 0.00 in Rain Light Rain
8:36 PM 75.2 °F - 71.6 °F 89% 30.12 in 8.0 mi South 9.2 mph - 0.04 in Rain Light Rain
8:53 PM 73.9 °F - 70.0 °F 87% 30.10 in 8.0 mi Variable 6.9 mph - 0.05 in Rain Light Rain
9:53 PM 73.0 °F - 71.1 °F 93% 30.12 in 10.0 mi SSE 3.5 mph - 0.01 in   Scattered Clouds
10:53 PM 73.9 °F - 72.0 °F 93% 30.12 in 10.0 mi Calm Calm - N/A   Clear
11:53 PM 75.0 °F - 72.0 °F 90% 30.14 in 10.0 mi SSE 4.6 mph - N/A   Mostly Cloudy